Language: 


Des rapports , des résumés tant et plus, au choix de chacun....


Données statistiques de la station
Quotidien Rapport Juin 16, 2017 Unités:  Métrique    Anglais   les deux
« Précédent Jour
Suivant Jour »
Quotidien Hebdomadaire Mensuel Annuel Actuel
  Haut: Bas: Moyen:
Température: 25.3 °C 10.3 °C 18.9 °C
Pt de rosée: 25.0 °C 9.0 °C 16.3 °C
Humidité: 98 % 44 % 85 %
Vitesse du vent: 19.8 km/h 0.0 km/h 7.6 km/h
Rafales: 27.7 km/h - -
Vent:- - West
Pression: 1026.0 hPa 1016.8 hPa -
Précipitation: 0.0 mm    
Historical Graphs
 
 
Données statistiques pour Juin 16, 2017
Heure Température Point de rosée Pression Vent Vitesse du vent Refales Humidité Pluie (taux horaire)
00:02 15.3 °C 12.0 °C 1016.8 hPa West 16.3 km/h 24.5 km/h 80 % 0.0 mm
00:07 15.2 °C 12.0 °C 1016.8 hPa West 12.6 km/h 23.0 km/h 81 % 0.0 mm
00:12 15.2 °C 12.0 °C 1016.8 hPa WNW 13.7 km/h 20.9 km/h 81 % 0.0 mm
00:17 15.2 °C 12.0 °C 1016.8 hPa WSW 13.0 km/h 24.5 km/h 81 % 0.0 mm
00:22 15.1 °C 12.0 °C 1018.2 hPa WSW 14.3 km/h 24.5 km/h 81 % 0.0 mm
00:27 15.1 °C 12.0 °C 1018.2 hPa West 9.0 km/h 19.8 km/h 82 % 0.0 mm
00:32 15.1 °C 12.0 °C 1018.2 hPa WSW 16.9 km/h 17.7 km/h 82 % 0.0 mm
00:37 15.0 °C 12.0 °C 1018.2 hPa WSW 16.3 km/h 17.7 km/h 82 % 0.0 mm
00:42 15.0 °C 12.0 °C 1018.2 hPa West 11.1 km/h 21.2 km/h 83 % 0.0 mm
00:47 14.9 °C 13.0 °C 1018.2 hPa West 17.2 km/h 21.2 km/h 84 % 0.0 mm
00:52 14.9 °C 13.0 °C 1018.2 hPa WSW 9.7 km/h 17.2 km/h 84 % 0.0 mm
00:57 14.9 °C 13.0 °C 1018.2 hPa WSW 12.6 km/h 19.1 km/h 84 % 0.0 mm
01:02 14.9 °C 13.0 °C 1018.2 hPa West 9.7 km/h 20.6 km/h 85 % 0.0 mm
01:07 14.8 °C 13.0 °C 1018.2 hPa WSW 16.9 km/h 20.6 km/h 85 % 0.0 mm
01:12 14.8 °C 13.0 °C 1018.2 hPa WSW 12.2 km/h 16.9 km/h 86 % 0.0 mm
01:18 14.7 °C 13.0 °C 1018.2 hPa West 10.5 km/h 16.9 km/h 86 % 0.0 mm
01:23 14.7 °C 13.0 °C 1018.2 hPa WSW 14.0 km/h 19.8 km/h 86 % 0.0 mm
01:28 14.7 °C 13.0 °C 1018.2 hPa West 10.1 km/h 19.8 km/h 87 % 0.0 mm
01:33 14.6 °C 13.0 °C 1018.2 hPa West 11.9 km/h 15.8 km/h 87 % 0.0 mm
01:38 14.5 °C 13.0 °C 1018.2 hPa West 9.7 km/h 14.8 km/h 87 % 0.0 mm
01:43 14.5 °C 13.0 °C 1018.2 hPa West 14.0 km/h 14.8 km/h 88 % 0.0 mm
01:48 14.5 °C 13.0 °C 1018.2 hPa WSW 16.3 km/h 16.3 km/h 88 % 0.0 mm
01:53 14.5 °C 13.0 °C 1018.2 hPa West 16.9 km/h 16.9 km/h 89 % 0.0 mm
01:58 14.5 °C 13.0 °C 1018.2 hPa West 9.7 km/h 16.9 km/h 89 % 0.0 mm
02:03 14.4 °C 13.0 °C 1018.2 hPa West 12.2 km/h 16.9 km/h 89 % 0.0 mm
02:08 14.4 °C 13.0 °C 1018.2 hPa WSW 9.7 km/h 13.7 km/h 90 % 0.0 mm
02:13 14.3 °C 13.0 °C 1018.2 hPa West 9.0 km/h 13.7 km/h 90 % 0.0 mm
02:18 14.3 °C 13.0 °C 1018.2 hPa West 11.1 km/h 12.6 km/h 90 % 0.0 mm
02:23 14.2 °C 13.0 °C 1018.2 hPa West 10.5 km/h 12.6 km/h 90 % 0.0 mm
02:28 14.2 °C 13.0 °C 1018.2 hPa West 7.9 km/h 12.2 km/h 90 % 0.0 mm
02:33 14.0 °C 13.0 °C 1018.2 hPa WSW 7.9 km/h 11.9 km/h 90 % 0.0 mm
02:38 13.9 °C 13.0 °C 1018.2 hPa West 8.7 km/h 10.1 km/h 91 % 0.0 mm
02:43 13.8 °C 13.0 °C 1018.2 hPa Calm   9.7 km/h 91 % 0.0 mm
02:48 13.7 °C 13.0 °C 1018.2 hPa West 6.1 km/h 10.1 km/h 91 % 0.0 mm
02:53 13.6 °C 13.0 °C 1018.8 hPa West 9.0 km/h 10.1 km/h 91 % 0.0 mm
02:59 13.6 °C 13.0 °C 1018.8 hPa WSW 10.1 km/h 12.2 km/h 92 % 0.0 mm
03:04 13.5 °C 13.0 °C 1018.8 hPa WSW 9.3 km/h 12.2 km/h 92 % 0.0 mm
03:09 13.5 °C 13.0 °C 1018.8 hPa West 6.9 km/h 10.5 km/h 92 % 0.0 mm
03:14 13.4 °C 12.0 °C 1018.8 hPa Calm   9.3 km/h 92 % 0.0 mm
03:19 13.3 °C 12.0 °C 1018.8 hPa WSW 4.3 km/h 6.9 km/h 92 % 0.0 mm
03:24 13.1 °C 12.0 °C 1018.8 hPa Calm   6.9 km/h 92 % 0.0 mm
03:29 13.0 °C 12.0 °C 1018.8 hPa West 2.1 km/h 6.4 km/h 93 % 0.0 mm
03:34 12.9 °C 12.0 °C 1018.8 hPa Calm   2.1 km/h 93 % 0.0 mm
03:39 12.9 °C 12.0 °C 1018.2 hPa Calm   8.7 km/h 93 % 0.0 mm
03:44 12.9 °C 12.0 °C 1018.2 hPa West 7.6 km/h 8.7 km/h 93 % 0.0 mm
03:49 12.7 °C 12.0 °C 1018.2 hPa West 6.9 km/h 8.7 km/h 93 % 0.0 mm
03:51 12.7 °C 12.0 °C 1018.2 hPa West 5.8 km/h 8.7 km/h 93 % 0.0 mm
03:56 12.6 °C 12.0 °C 1019.9 hPa West 5.8 km/h 8.7 km/h 94 % 0.0 mm
04:01 12.6 °C 12.0 °C 1019.9 hPa West 6.4 km/h 8.7 km/h 94 % 0.0 mm
04:06 12.5 °C 12.0 °C 1019.9 hPa West 6.1 km/h 8.7 km/h 94 % 0.0 mm
04:11 12.2 °C 11.0 °C 1018.2 hPa Calm   8.7 km/h 93 % 0.0 mm
04:16 11.9 °C 11.0 °C 1018.2 hPa Calm   6.9 km/h 94 % 0.0 mm
04:21 11.8 °C 11.0 °C 1018.8 hPa Calm     94 % 0.0 mm
04:26 11.8 °C 11.0 °C 1018.8 hPa Calm     94 % 0.0 mm
04:31 11.9 °C 11.0 °C 1018.8 hPa Calm     94 % 0.0 mm
04:37 11.9 °C 11.0 °C 1018.8 hPa Calm     95 % 0.0 mm
04:42 11.8 °C 11.0 °C 1018.8 hPa West 4.7 km/h 6.9 km/h 95 % 0.0 mm
04:47 11.7 °C 11.0 °C 1018.8 hPa West 1.4 km/h 6.9 km/h 95 % 0.0 mm
04:52 11.6 °C 11.0 °C 1018.8 hPa Calm   8.7 km/h 95 % 0.0 mm
04:57 11.5 °C 11.0 °C 1018.8 hPa Calm   8.7 km/h 95 % 0.0 mm
05:02 11.3 °C 11.0 °C 1018.8 hPa Calm     95 % 0.0 mm
05:07 11.2 °C 10.0 °C 1018.8 hPa Calm     94 % 0.0 mm
05:12 11.0 °C 10.0 °C 1018.8 hPa Calm     94 % 0.0 mm
05:17 10.9 °C 10.0 °C 1018.8 hPa Calm     95 % 0.0 mm
05:22 10.8 °C 10.0 °C 1018.8 hPa Calm     95 % 0.0 mm
05:27 10.7 °C 10.0 °C 1018.8 hPa Calm     94 % 0.0 mm
05:32 10.6 °C 10.0 °C 1018.8 hPa Calm     94 % 0.0 mm
05:37 10.5 °C 10.0 °C 1019.9 hPa Calm   5.8 km/h 94 % 0.0 mm
05:42 10.4 °C 9.0 °C 1019.9 hPa Calm   5.8 km/h 94 % 0.0 mm
05:47 10.3 °C 9.0 °C 1019.9 hPa Calm   4.3 km/h 94 % 0.0 mm
05:52 10.4 °C 10.0 °C 1018.8 hPa Calm   6.4 km/h 95 % 0.0 mm
05:57 10.6 °C 10.0 °C 1018.8 hPa West 4.7 km/h 9.0 km/h 95 % 0.0 mm
06:02 10.8 °C 10.0 °C 1018.8 hPa West 9.0 km/h 9.7 km/h 95 % 0.0 mm
06:07 11.0 °C 10.0 °C 1019.9 hPa WSW 9.3 km/h 10.1 km/h 95 % 0.0 mm
06:12 11.2 °C 11.0 °C 1019.9 hPa Calm   10.1 km/h 95 % 0.0 mm
06:17 11.3 °C 11.0 °C 1019.9 hPa Calm   9.3 km/h 95 % 0.0 mm
06:22 11.5 °C 11.0 °C 1019.9 hPa Calm   5.8 km/h 95 % 0.0 mm
06:27 11.6 °C 11.0 °C 1019.9 hPa WSW 6.9 km/h 6.9 km/h 95 % 0.0 mm
06:32 11.7 °C 11.0 °C 1019.9 hPa West 9.0 km/h 10.1 km/h 95 % 0.0 mm
06:38 12.0 °C 11.0 °C 1020.9 hPa West 6.9 km/h 10.5 km/h 94 % 0.0 mm
06:43 12.3 °C 12.0 °C 1020.9 hPa WSW 6.1 km/h 10.5 km/h 94 % 0.0 mm
06:48 12.5 °C 12.0 °C 1020.9 hPa WSW 10.5 km/h 10.5 km/h 94 % 0.0 mm
06:53 12.8 °C 12.0 °C 1020.9 hPa West 8.7 km/h 10.5 km/h 93 % 0.0 mm
06:58 13.1 °C 12.0 °C 1020.9 hPa West 7.9 km/h 13.0 km/h 93 % 0.0 mm
07:03 13.3 °C 12.0 °C 1020.9 hPa SW 5.5 km/h 13.0 km/h 92 % 0.0 mm
07:08 13.7 °C 13.0 °C 1020.9 hPa West 7.9 km/h 10.5 km/h 92 % 0.0 mm
07:13 13.9 °C 13.0 °C 1020.9 hPa West 9.7 km/h 14.3 km/h 91 % 0.0 mm
07:18 14.2 °C 13.0 °C 1020.9 hPa West 9.7 km/h 14.3 km/h 90 % 0.0 mm
07:23 14.4 °C 13.0 °C 1020.9 hPa WNW 9.0 km/h 16.3 km/h 88 % 0.0 mm
07:28 14.8 °C 13.0 °C 1020.9 hPa WNW 11.6 km/h 16.3 km/h 87 % 0.0 mm
07:33 15.0 °C 13.0 °C 1020.9 hPa WSW 7.6 km/h 13.0 km/h 86 % 0.0 mm
07:38 15.4 °C 13.0 °C 1020.9 hPa WNW 6.9 km/h 13.0 km/h 85 % 0.0 mm
07:43 15.6 °C 13.0 °C 1020.9 hPa WNW 9.0 km/h 15.4 km/h 83 % 0.0 mm
07:48 15.8 °C 13.0 °C 1020.9 hPa West 6.1 km/h 15.4 km/h 82 % 0.0 mm
07:53 15.9 °C 13.0 °C 1020.9 hPa West 6.4 km/h 12.2 km/h 80 % 0.0 mm
07:58 16.1 °C 13.0 °C 1020.9 hPa NW 4.0 km/h 11.9 km/h 79 % 0.0 mm
08:03 16.3 °C 13.0 °C 1020.9 hPa West 9.0 km/h 13.7 km/h 78 % 0.0 mm
08:08 16.4 °C 13.0 °C 1020.9 hPa West 6.4 km/h 13.7 km/h 77 % 0.0 mm
08:13 16.8 °C 13.0 °C 1020.9 hPa NNW 5.8 km/h 10.5 km/h 77 % 0.0 mm
08:18 17.0 °C 13.0 °C 1020.9 hPa WNW 11.9 km/h 13.0 km/h 74 % 0.0 mm
08:24 17.2 °C 13.0 °C 1020.9 hPa West 5.5 km/h 13.0 km/h 73 % 0.0 mm
08:29 17.5 °C 13.0 °C 1020.9 hPa NNW 6.4 km/h 11.9 km/h 74 % 0.0 mm
08:34 17.7 °C 13.0 °C 1020.9 hPa WSW 6.1 km/h 13.7 km/h 73 % 0.0 mm
08:39 18.0 °C 13.0 °C 1021.9 hPa WNW 9.7 km/h 13.7 km/h 72 % 0.0 mm
08:44 18.1 °C 13.0 °C 1021.9 hPa NE 2.1 km/h 11.9 km/h 71 % 0.0 mm
08:49 18.4 °C 13.0 °C 1021.9 hPa West 7.9 km/h 12.6 km/h 70 % 0.0 mm
08:54 18.4 °C 13.0 °C 1020.9 hPa NNW 9.7 km/h 14.0 km/h 69 % 0.0 mm
08:59 18.5 °C 13.0 °C 1020.9 hPa WNW 6.1 km/h 16.9 km/h 69 % 0.0 mm
09:04 18.6 °C 13.0 °C 1020.9 hPa North 6.1 km/h 17.2 km/h 68 % 0.0 mm
09:09 18.9 °C 13.0 °C 1020.9 hPa West 3.2 km/h 17.2 km/h 68 % 0.0 mm
09:14 18.9 °C 13.0 °C 1020.9 hPa NW 9.3 km/h 13.0 km/h 67 % 0.0 mm
09:19 18.9 °C 13.0 °C 1020.9 hPa West 1.4 km/h 15.8 km/h 66 % 0.0 mm
09:24 18.6 °C 12.0 °C 1020.9 hPa WNW 5.5 km/h 15.8 km/h 66 % 0.0 mm
09:29 19.1 °C 13.0 °C 1020.9 hPa East 2.6 km/h 14.0 km/h 67 % 0.0 mm
09:34 19.4 °C 13.0 °C 1020.9 hPa West 6.9 km/h 12.6 km/h 66 % 0.0 mm
09:39 19.6 °C 13.0 °C 1021.9 hPa WNW 6.1 km/h 12.6 km/h 65 % 0.0 mm
09:44 19.7 °C 13.0 °C 1021.9 hPa West 5.0 km/h 12.6 km/h 65 % 0.0 mm
09:49 19.8 °C 13.0 °C 1021.9 hPa WNW 7.9 km/h 12.6 km/h 63 % 0.0 mm
09:54 19.7 °C 13.0 °C 1021.9 hPa West 5.8 km/h 12.6 km/h 63 % 0.0 mm
09:59 20.2 °C 13.0 °C 1021.9 hPa WSW 5.5 km/h 12.6 km/h 63 % 0.0 mm
10:04 19.6 °C 12.0 °C 1021.9 hPa WNW 6.9 km/h 14.0 km/h 62 % 0.0 mm
10:09 19.9 °C 13.0 °C 1021.9 hPa North 5.0 km/h 14.0 km/h 63 % 0.0 mm
10:14 19.7 °C 12.0 °C 1021.9 hPa WSW 13.7 km/h 14.0 km/h 62 % 0.0 mm
10:19 19.8 °C 12.0 °C 1021.9 hPa NW 11.9 km/h 14.0 km/h 62 % 0.0 mm
10:24 20.1 °C 13.0 °C 1021.9 hPa SW 12.6 km/h 14.8 km/h 62 % 0.0 mm
10:30 20.3 °C 13.0 °C 1021.9 hPa NNE 3.2 km/h 14.8 km/h 61 % 0.0 mm
10:35 20.1 °C 12.0 °C 1021.9 hPa West 5.8 km/h 12.2 km/h 61 % 0.0 mm
10:40 20.1 °C 12.0 °C 1022.9 hPa NW 7.9 km/h 12.2 km/h 61 % 0.0 mm
10:45 20.5 °C 13.0 °C 1022.9 hPa WNW 9.7 km/h 15.8 km/h 59 % 0.0 mm
10:50 20.6 °C 12.0 °C 1022.9 hPa NE 5.0 km/h 15.8 km/h 58 % 0.0 mm
10:55 20.1 °C 12.0 °C 1022.9 hPa WNW 6.4 km/h 15.8 km/h 58 % 0.0 mm
11:00 20.5 °C 13.0 °C 1022.9 hPa West 8.7 km/h 15.8 km/h 59 % 0.0 mm
11:05 21.0 °C 12.0 °C 1022.9 hPa NW 12.6 km/h 15.8 km/h 56 % 0.0 mm
11:10 21.3 °C 12.0 °C 1022.9 hPa WNW 4.0 km/h 15.8 km/h 54 % 0.0 mm
11:15 20.6 °C 11.0 °C 1022.9 hPa West 8.7 km/h 11.9 km/h 54 % 0.0 mm
11:20 20.3 °C 11.0 °C 1022.9 hPa NNW 6.1 km/h 14.0 km/h 55 % 0.0 mm
11:25 20.0 °C 11.0 °C 1022.9 hPa SSW 5.5 km/h 14.0 km/h 55 % 0.0 mm
11:30 19.8 °C 11.0 °C 1022.9 hPa West 10.1 km/h 12.6 km/h 56 % 0.0 mm
11:35 20.9 °C 12.0 °C 1022.9 hPa WNW 6.9 km/h 19.8 km/h 57 % 0.0 mm
11:40 21.5 °C 12.0 °C 1022.9 hPa West 8.7 km/h 19.8 km/h 54 % 0.0 mm
11:45 20.7 °C 11.0 °C 1022.9 hPa NNW 10.8 km/h 15.4 km/h 53 % 0.0 mm
11:50 21.2 °C 11.0 °C 1022.9 hPa NW 5.8 km/h 14.0 km/h 52 % 0.0 mm
11:55 20.7 °C 11.0 °C 1022.9 hPa WNW 5.0 km/h 16.9 km/h 52 % 0.0 mm
12:00 20.9 °C 11.0 °C 1022.9 hPa WNW 10.1 km/h 16.9 km/h 52 % 0.0 mm
12:05 20.6 °C 10.0 °C 1022.9 hPa West 17.7 km/h 17.7 km/h 50 % 0.0 mm
12:10 20.9 °C 11.0 °C 1022.9 hPa SW 15.4 km/h 20.1 km/h 52 % 0.0 mm
12:15 20.5 °C 11.0 °C 1022.9 hPa WNW 6.9 km/h 20.1 km/h 52 % 0.0 mm
12:20 20.7 °C 11.0 °C 1022.9 hPa West 4.7 km/h 12.2 km/h 53 % 0.0 mm
12:25 22.2 °C 13.0 °C 1022.9 hPa West 8.7 km/h 14.3 km/h 53 % 0.0 mm
12:30 22.0 °C 11.0 °C 1022.9 hPa West 16.9 km/h 27.7 km/h 49 % 0.0 mm
12:35 21.5 °C 10.0 °C 1022.9 hPa WSW 13.0 km/h 27.7 km/h 48 % 0.0 mm
12:41 21.4 °C 10.0 °C 1022.9 hPa WSW 5.5 km/h 20.9 km/h 48 % 0.0 mm
12:46 21.5 °C 10.0 °C 1022.9 hPa West 10.1 km/h 14.3 km/h 47 % 0.0 mm
12:51 21.0 °C 9.0 °C 1022.9 hPa WNW 5.0 km/h 16.9 km/h 47 % 0.0 mm
12:56 20.7 °C 9.0 °C 1021.9 hPa NNW 11.6 km/h 16.9 km/h 48 % 0.0 mm
13:01 21.2 °C 10.0 °C 1021.9 hPa NW 9.0 km/h 11.9 km/h 48 % 0.0 mm
13:06 21.9 °C 11.0 °C 1021.9 hPa NW 9.3 km/h 18.3 km/h 48 % 0.0 mm
13:11 22.4 °C 11.0 °C 1022.9 hPa WNW 9.0 km/h 18.3 km/h 47 % 0.0 mm
13:16 21.8 °C 10.0 °C 1022.9 hPa West 10.5 km/h 17.7 km/h 46 % 0.0 mm
13:21 21.2 °C 9.0 °C 1022.9 hPa WSW 10.1 km/h 21.2 km/h 46 % 0.0 mm
13:26 21.5 °C 10.0 °C 1022.9 hPa WNW 12.2 km/h 21.2 km/h 47 % 0.0 mm
13:31 21.9 °C 10.0 °C 1022.9 hPa West 14.0 km/h 14.0 km/h 47 % 0.0 mm
13:36 22.5 °C 11.0 °C 1022.9 hPa WSW 4.7 km/h 14.8 km/h 47 % 0.0 mm
13:41 21.8 °C 10.0 °C 1022.9 hPa WNW 17.2 km/h 17.7 km/h 46 % 0.0 mm
13:46 21.0 °C 9.0 °C 1022.9 hPa WNW 10.1 km/h 18.0 km/h 45 % 0.0 mm
13:51 20.8 °C 9.0 °C 1022.9 hPa North 11.9 km/h 18.0 km/h 46 % 0.0 mm
13:56 21.5 °C 10.0 °C 1023.9 hPa West 10.5 km/h 16.9 km/h 46 % 0.0 mm
14:01 21.9 °C 10.0 °C 1023.9 hPa West 13.7 km/h 20.6 km/h 46 % 0.0 mm
14:06 22.0 °C 10.0 °C 1023.9 hPa North 11.9 km/h 20.6 km/h 47 % 0.0 mm
14:11 22.8 °C 11.0 °C 1023.9 hPa NNE 5.8 km/h 16.6 km/h 46 % 0.0 mm
14:17 23.4 °C 11.0 °C 1023.9 hPa NNW 9.3 km/h 16.9 km/h 45 % 0.0 mm
14:22 22.4 °C 10.0 °C 1023.9 hPa West 16.3 km/h 17.7 km/h 44 % 0.0 mm
14:27 21.8 °C 9.0 °C 1023.9 hPa NW 13.0 km/h 20.1 km/h 44 % 0.0 mm
14:32 20.1 °C 20.0 °C 1023.9 hPa West 7.9 km/h 20.1 km/h 98 % 0.0 mm
14:37 19.1 °C 19.0 °C 1022.9 hPa North 10.1 km/h 14.3 km/h 98 % 0.0 mm
14:42 17.6 °C 18.0 °C 1022.9 hPa NNW 13.0 km/h 15.4 km/h 98 % 0.0 mm
14:47 21.7 °C 22.0 °C 1022.9 hPa NNW 6.9 km/h 17.7 km/h 98 % 0.0 mm
14:52 20.4 °C 20.0 °C 1023.9 hPa West 9.0 km/h 17.7 km/h 98 % 0.0 mm
14:57 25.3 °C 25.0 °C 1023.9 hPa West 5.0 km/h 17.2 km/h 98 % 0.0 mm
14:58 22.7 °C 23.0 °C 1023.9 hPa North 6.9 km/h 16.6 km/h 98 % 0.0 mm
15:03 20.4 °C 20.0 °C 1023.9 hPa North 11.1 km/h 15.8 km/h 98 % 0.0 mm
15:08 23.8 °C 24.0 °C 1023.9 hPa WNW 11.6 km/h 17.7 km/h 98 % 0.0 mm
15:13 24.2 °C 24.0 °C 1023.9 hPa NNW 11.9 km/h 17.7 km/h 98 % 0.0 mm
15:18 24.2 °C 24.0 °C 1023.9 hPa WNW 10.8 km/h 17.7 km/h 98 % 0.0 mm
15:20 24.2 °C 24.0 °C 1023.9 hPa NW 7.9 km/h 17.7 km/h 98 % 0.0 mm
15:25 24.2 °C 24.0 °C 1023.9 hPa NNE 8.7 km/h 16.6 km/h 98 % 0.0 mm
15:30 22.3 °C 22.0 °C 1023.9 hPa NNE 5.0 km/h 16.6 km/h 98 % 0.0 mm
15:35 22.0 °C 22.0 °C 1023.9 hPa NNW 6.9 km/h 17.7 km/h 98 % 0.0 mm
15:40 22.2 °C 22.0 °C 1023.9 hPa WNW 8.7 km/h 17.7 km/h 98 % 0.0 mm
15:45 22.6 °C 23.0 °C 1023.9 hPa West 11.9 km/h 15.8 km/h 98 % 0.0 mm
15:50 22.8 °C 23.0 °C 1023.9 hPa NE 10.1 km/h 15.8 km/h 98 % 0.0 mm
15:55 22.8 °C 23.0 °C 1023.9 hPa NW 12.2 km/h 15.8 km/h 98 % 0.0 mm
16:00 22.8 °C 23.0 °C 1023.9 hPa North 7.9 km/h 15.4 km/h 98 % 0.0 mm
16:05 22.8 °C 23.0 °C 1023.9 hPa NNW 8.7 km/h 13.0 km/h 98 % 0.0 mm
16:10 22.8 °C 23.0 °C 1023.9 hPa WNW 5.5 km/h 13.0 km/h 98 % 0.0 mm
16:15 22.8 °C 23.0 °C 1023.9 hPa North 9.3 km/h 14.3 km/h 98 % 0.0 mm
16:20 22.8 °C 23.0 °C 1023.9 hPa NNW 12.2 km/h 15.4 km/h 98 % 0.0 mm
16:25 22.8 °C 23.0 °C 1023.9 hPa North 5.8 km/h 15.4 km/h 98 % 0.0 mm
16:30 22.8 °C 23.0 °C 1023.9 hPa NNW 8.7 km/h 14.0 km/h 98 % 0.0 mm
16:35 22.8 °C 23.0 °C 1023.9 hPa NNW 10.1 km/h 12.6 km/h 98 % 0.0 mm
16:38 22.8 °C 23.0 °C 1023.9 hPa NNW 9.7 km/h 14.0 km/h 98 % 0.0 mm
16:44 22.8 °C 23.0 °C 1023.9 hPa ENE 9.7 km/h 14.0 km/h 98 % 0.0 mm
16:49 22.8 °C 23.0 °C 1023.9 hPa NNW 4.7 km/h 16.3 km/h 98 % 0.0 mm
16:54 22.8 °C 23.0 °C 1023.9 hPa NNW 9.3 km/h 16.3 km/h 98 % 0.0 mm
16:59 22.8 °C 23.0 °C 1023.9 hPa North 7.9 km/h 15.4 km/h 98 % 0.0 mm
17:04 22.8 °C 23.0 °C 1023.9 hPa NNW 3.2 km/h 15.4 km/h 98 % 0.0 mm
17:09 22.8 °C 23.0 °C 1024.9 hPa NW 12.2 km/h 15.4 km/h 98 % 0.0 mm
17:14 22.8 °C 23.0 °C 1024.9 hPa West 2.1 km/h 15.4 km/h 98 % 0.0 mm
17:19 22.8 °C 23.0 °C 1024.9 hPa NW 9.7 km/h 12.6 km/h 98 % 0.0 mm
17:24 22.8 °C 23.0 °C 1023.9 hPa NNW 5.5 km/h 12.6 km/h 98 % 0.0 mm
17:29 22.8 °C 23.0 °C 1023.9 hPa NNW 6.9 km/h 11.6 km/h 98 % 0.0 mm
17:34 22.8 °C 23.0 °C 1023.9 hPa NW 5.8 km/h 11.6 km/h 98 % 0.0 mm
17:39 22.8 °C 23.0 °C 1024.9 hPa North 4.7 km/h 12.6 km/h 98 % 0.0 mm
17:44 22.8 °C 23.0 °C 1024.9 hPa WNW 6.4 km/h 12.6 km/h 98 % 0.0 mm
17:49 22.8 °C 23.0 °C 1024.9 hPa NNW 10.1 km/h 14.0 km/h 98 % 0.0 mm
17:54 22.8 °C 23.0 °C 1024.9 hPa NNW 8.7 km/h 15.4 km/h 98 % 0.0 mm
17:59 22.8 °C 23.0 °C 1024.9 hPa West 6.4 km/h 15.4 km/h 98 % 0.0 mm
18:04 22.8 °C 23.0 °C 1024.9 hPa NW 7.9 km/h 10.1 km/h 98 % 0.0 mm
18:09 22.8 °C 23.0 °C 1024.9 hPa NNE 1.8 km/h 12.2 km/h 98 % 0.0 mm
18:14 22.8 °C 23.0 °C 1024.9 hPa NNW 4.3 km/h 12.2 km/h 98 % 0.0 mm
18:19 22.8 °C 23.0 °C 1024.9 hPa NW 8.7 km/h 11.9 km/h 98 % 0.0 mm
18:24 22.8 °C 23.0 °C 1024.9 hPa North 2.1 km/h 11.9 km/h 98 % 0.0 mm
18:29 22.8 °C 23.0 °C 1024.9 hPa North 10.5 km/h 11.6 km/h 98 % 0.0 mm
18:34 22.8 °C 23.0 °C 1024.9 hPa North 6.1 km/h 11.6 km/h 98 % 0.0 mm
18:39 22.8 °C 23.0 °C 1024.9 hPa NNW 5.8 km/h 10.5 km/h 98 % 0.0 mm
18:44 22.8 °C 23.0 °C 1024.9 hPa North 10.1 km/h 13.7 km/h 98 % 0.0 mm
18:49 22.8 °C 23.0 °C 1024.9 hPa NW 9.7 km/h 13.7 km/h 98 % 0.0 mm
18:54 22.8 °C 23.0 °C 1024.9 hPa NNW 2.6 km/h 11.6 km/h 98 % 0.0 mm
18:59 22.8 °C 23.0 °C 1024.9 hPa NNW 6.9 km/h 11.9 km/h 98 % 0.0 mm
19:04 22.8 °C 23.0 °C 1024.9 hPa NE 7.9 km/h 11.9 km/h 98 % 0.0 mm
19:10 22.8 °C 23.0 °C 1024.9 hPa West 6.4 km/h 11.9 km/h 98 % 0.0 mm
19:15 22.8 °C 23.0 °C 1024.9 hPa NNW 5.0 km/h 9.0 km/h 98 % 0.0 mm
19:20 22.8 °C 23.0 °C 1024.9 hPa NNW 2.1 km/h 11.6 km/h 98 % 0.0 mm
19:25 22.8 °C 23.0 °C 1024.9 hPa West 5.8 km/h 11.6 km/h 98 % 0.0 mm
19:30 22.8 °C 23.0 °C 1024.9 hPa NNW 4.3 km/h 7.6 km/h 98 % 0.0 mm
19:35 22.8 °C 23.0 °C 1024.9 hPa North 4.7 km/h 6.9 km/h 98 % 0.0 mm
19:40 22.8 °C 23.0 °C 1024.9 hPa West 2.6 km/h 7.9 km/h 98 % 0.0 mm
19:45 22.8 °C 23.0 °C 1024.9 hPa Calm   7.9 km/h 98 % 0.0 mm
19:50 22.8 °C 23.0 °C 1024.9 hPa North 3.2 km/h 9.3 km/h 98 % 0.0 mm
19:51 22.8 °C 23.0 °C 1024.9 hPa Calm   9.3 km/h 98 % 0.0 mm
19:56 22.8 °C 23.0 °C 1024.9 hPa West 6.1 km/h 9.3 km/h 98 % 0.0 mm
20:01 22.8 °C 23.0 °C 1024.9 hPa Calm   10.1 km/h 98 % 0.0 mm
20:06 22.8 °C 23.0 °C 1024.9 hPa WNW 5.5 km/h 10.1 km/h 98 % 0.0 mm
20:11 22.8 °C 23.0 °C 1024.9 hPa WNW 2.6 km/h 11.6 km/h 98 % 0.0 mm
20:16 22.8 °C 23.0 °C 1024.9 hPa NNW 4.7 km/h 11.6 km/h 98 % 0.0 mm
20:21 22.8 °C 23.0 °C 1024.9 hPa WNW 1.4 km/h 6.1 km/h 98 % 0.0 mm
20:26 22.8 °C 23.0 °C 1024.9 hPa NNW 4.3 km/h 6.1 km/h 98 % 0.0 mm
20:31 22.8 °C 23.0 °C 1024.9 hPa West 4.3 km/h 6.4 km/h 98 % 0.0 mm
20:34 22.8 °C 23.0 °C 1024.9 hPa WSW 4.7 km/h 8.7 km/h 98 % 0.0 mm
20:39 22.8 °C 23.0 °C 1024.9 hPa WSW 6.9 km/h 11.6 km/h 98 % 0.0 mm
20:44 22.8 °C 23.0 °C 1024.9 hPa West 10.5 km/h 13.7 km/h 98 % 0.0 mm
20:49 22.8 °C 23.0 °C 1024.9 hPa West 13.7 km/h 16.3 km/h 98 % 0.0 mm
20:54 22.8 °C 23.0 °C 1023.9 hPa West 12.2 km/h 16.3 km/h 98 % 0.0 mm
20:59 22.8 °C 23.0 °C 1023.9 hPa West 9.0 km/h 16.6 km/h 98 % 0.0 mm
21:04 22.8 °C 23.0 °C 1023.9 hPa West 9.0 km/h 16.6 km/h 98 % 0.0 mm
21:09 22.8 °C 23.0 °C 1023.9 hPa West 13.0 km/h 13.0 km/h 98 % 0.0 mm
21:14 22.8 °C 23.0 °C 1023.9 hPa WSW 12.6 km/h 13.0 km/h 98 % 0.0 mm
21:19 22.8 °C 23.0 °C 1023.9 hPa West 10.1 km/h 13.0 km/h 98 % 0.0 mm
21:24 22.8 °C 23.0 °C 1024.9 hPa West 19.8 km/h 19.8 km/h 98 % 0.0 mm
21:29 22.8 °C 23.0 °C 1024.9 hPa WSW 13.7 km/h 19.8 km/h 98 % 0.0 mm
21:34 22.8 °C 23.0 °C 1024.9 hPa West 12.6 km/h 16.6 km/h 98 % 0.0 mm
21:40 22.8 °C 23.0 °C 1024.9 hPa West 9.3 km/h 16.6 km/h 98 % 0.0 mm
21:45 22.8 °C 23.0 °C 1024.9 hPa WSW 14.0 km/h 14.3 km/h 98 % 0.0 mm
21:50 22.8 °C 23.0 °C 1024.9 hPa WSW 8.7 km/h 14.3 km/h 98 % 0.0 mm
21:55 22.8 °C 23.0 °C 1024.9 hPa WSW 7.9 km/h 13.0 km/h 98 % 0.0 mm
22:00 22.8 °C 23.0 °C 1024.9 hPa West 7.9 km/h 10.5 km/h 98 % 0.0 mm
22:05 22.8 °C 23.0 °C 1024.9 hPa WSW 9.3 km/h 10.1 km/h 98 % 0.0 mm
22:10 22.8 °C 23.0 °C 1024.9 hPa West 9.0 km/h 12.2 km/h 98 % 0.0 mm
22:15 22.8 °C 23.0 °C 1024.9 hPa WSW 7.9 km/h 12.2 km/h 98 % 0.0 mm
22:20 22.8 °C 23.0 °C 1024.9 hPa WSW 5.8 km/h 9.7 km/h 98 % 0.0 mm
22:25 22.8 °C 23.0 °C 1026.0 hPa West 6.9 km/h 8.7 km/h 98 % 0.0 mm
22:28 22.8 °C 23.0 °C 1026.0 hPa West 6.1 km/h 8.7 km/h 98 % 0.0 mm
22:33 22.8 °C 23.0 °C 1026.0 hPa West 10.1 km/h 10.1 km/h 98 % 0.0 mm
22:38 22.8 °C 23.0 °C 1026.0 hPa West 6.4 km/h 10.1 km/h 98 % 0.0 mm
22:43 22.8 °C 23.0 °C 1026.0 hPa Calm   9.7 km/h 98 % 0.0 mm
22:48 22.8 °C 23.0 °C 1026.0 hPa WSW 7.9 km/h 7.9 km/h 98 % 0.0 mm
22:53 22.8 °C 23.0 °C 1026.0 hPa West 6.4 km/h 9.3 km/h 98 % 0.0 mm
22:58 22.8 °C 23.0 °C 1026.0 hPa WSW 9.0 km/h 9.3 km/h 98 % 0.0 mm
23:03 22.8 °C 23.0 °C 1026.0 hPa West 7.9 km/h 9.0 km/h 98 % 0.0 mm
23:08 22.8 °C 23.0 °C 1024.9 hPa WSW 9.0 km/h 9.3 km/h 98 % 0.0 mm
23:13 22.8 °C 23.0 °C 1024.9 hPa West 6.4 km/h 9.3 km/h 98 % 0.0 mm
23:18 22.8 °C 23.0 °C 1024.9 hPa WSW 8.7 km/h 10.5 km/h 98 % 0.0 mm
23:23 22.8 °C 23.0 °C 1026.0 hPa West 9.7 km/h 10.8 km/h 98 % 0.0 mm
23:28 22.8 °C 23.0 °C 1026.0 hPa West 6.9 km/h 10.8 km/h 98 % 0.0 mm
23:33 22.8 °C 23.0 °C 1026.0 hPa West 10.1 km/h 10.1 km/h 98 % 0.0 mm
23:38 22.8 °C 23.0 °C 1026.0 hPa WSW 8.7 km/h 12.6 km/h 98 % 0.0 mm
23:43 22.8 °C 23.0 °C 1026.0 hPa West 9.3 km/h 12.6 km/h 98 % 0.0 mm
23:48 22.8 °C 23.0 °C 1026.0 hPa WSW 9.0 km/h 12.2 km/h 98 % 0.0 mm
23:53 22.8 °C 23.0 °C 1026.0 hPa West 10.1 km/h 12.2 km/h 98 % 0.0 mm
23:58 22.8 °C 23.0 °C 1026.0 hPa West 7.9 km/h 12.6 km/h 98 % 0.0 mm
Le Gheer Warneton
Courtoisie de Weather Underground - 2.25 mb

Mise a jour : 17/12/2017 22:35:11
Généré par Cumulus 1.9.4 (1099)